Regional Weather Roundup
Issued by NWS

Home | Current Version | Previous Version | Text Only | Print | Product List | Glossary Off
Versions: 1 2 3 4 5 6 7 8 9 10 11 12 13 14 15 16 17 18 19 20 21 22 23 24 25 26 27 28 29 30 31 32 33 34 35 36 37 38 39 40 41 42 43 44 45 46 47 48 49 50

000
ASUS43 KBIS 262010
RWRND

NORTH DAKOTA REGIONAL WEATHER ROUNDUP
NATIONAL WEATHER SERVICE BISMARCK ND
300 PM CDT MON SEP 26 2016

NOTE: "FAIR" INDICATES FEW OR NO CLOUDS BELOW 12,000 FEET WITH NO
SIGNIFICANT WEATHER AND/OR OBSTRUCTIONS TO VISIBILITY.


NDZ001>003-009>011-017-262100-
NORTHWEST NORTH DAKOTA

CITY           SKY/WX    TMP DP  RH WIND       PRES   REMARKS
WILLISTON      SUNNY     68  36  30 W15       30.17F
MINOT          SUNNY     66  34  30 W20G33    30.10F
MINOT AFB      SUNNY     65  34  31 NW24      30.08F
$$

NDZ018>021-031>035-040>046-262100-
SOUTHWEST NORTH DAKOTA

CITY           SKY/WX    TMP DP  RH WIND       PRES   REMARKS
BISMARCK       SUNNY     67  33  28 NW18G28   30.12F
DICKINSON      SUNNY     64  33  31 NW14G25   30.17F
GARRISON         N/A     65  35  33 NW23G36   30.11F
HETTINGER ARPT SUNNY     68  38  33 NW17      30.19F
$$

NDZ004>008-012>016-024-026-027-054-262100-
NORTHEAST NORTH DAKOTA

CITY           SKY/WX    TMP DP  RH WIND       PRES   REMARKS
GRAND FORKS    MOSUNNY   63  41  44 NW28G35   29.91F
GRND FRKS AFB  SUNNY     63  39  41 NW23G31   29.92F
DEVILS LAKE    SUNNY     62  31  31 NW24G36   29.99F
$$

NDZ022-023-025-028>030-036>039-047>053-262100-
SOUTHEAST NORTH DAKOTA

CITY           SKY/WX    TMP DP  RH WIND       PRES   REMARKS
FARGO          SUNNY     66  33  29 NW26G37   29.93F
JAMESTOWN      SUNNY     64  36  35 NW23G36   30.02F
$$





USA.gov is the U.S. government's official web portal to all federal, state and local government web resources and services.